Regional Weather Roundup
Issued by NWS Boston, MA

Home | Current Version | Previous Version | Text Only | Print | Product List | Glossary On
Versions: 1 2 3 4 5 6 7 8 9 10 11 12 13 14 15 16 17 18 19 20 21 22 23 24 25 26 27 28 29 30 31 32 33 34 35 36 37 38 39 40 41 42 43 44 45 46 47 48 49 50
000
ASUS41 KBOX 300010
RWRBOX

REGIONAL WEATHER ROUNDUP
NATIONAL WEATHER SERVICE TAUNTON MA
800 PM EDT MON JUN 29 2015

NOTE:  "FAIR" INDICATES FEW OR NO CLOUDS BELOW 12,000 FEET WITH NO
SIGNIFICANT WEATHER AND/OR OBSTRUCTIONS TO VISIBILITY.  THE FOLLOWING
OBSERVATION LOCATIONS DO NOT REPORT PRESENT WEATHER...PROVINCETOWN...
SMITHFIELD...BLOCK ISLAND...KEENE...AND OXFORD.

MAZALL-300100-
EASTERN MASSACHUSETTS

CITY           SKY/WX    TMP DP  RH WIND       PRES   REMARKS
BOSTON         MOCLDY    71  61  70 SW9       29.88R
6HR MIN TEMP:  66; 6HR MAX TEMP:  75;

BEVERLY        MOCLDY    70  59  68 SW6       29.87R
LAWRENCE       MOCLDY    71  57  61 SW10      29.89R
BEDFORD        PTCLDY    68  60  75 SW5       29.87R
BLUE HILL        N/A     67  60  78 SW9       29.90R
NORWOOD        CLEAR     71  61  70 SW5       29.89R
MARSHFIELD     CLEAR     70  64  83 SW3       29.91R
PLYMOUTH       CLEAR     69  60  73 SW6       29.91R
TAUNTON        MOCLDY    71  61  70 S3        29.90R
NEW BEDFORD    CLEAR     68  59  73 SW9       29.90R
$$

MAZALL-300100-
CAPE COD AND THE ISLANDS

CITY           SKY/WX    TMP DP  RH WIND       PRES   REMARKS
FALMOUTH       CLEAR     66  61  82 SW13      29.92R
HYANNIS        CLEAR     67  60  78 SW15      29.90S
CHATHAM        PTCLDY    66  61  84 SW9G16    29.93R
PROVINCETOWN   PTCLDY    64   9  11 SW10      29.91R
NANTUCKET      MOCLDY    65  60  84 SW12      29.94R
MARTHAS VNYRD  PTCLDY    67  59  75 SW10      29.93R
$$

MAZALL-300100-
CENTRAL AND WESTERN MASSACHUSETTS

CITY           SKY/WX    TMP DP  RH WIND       PRES   REMARKS
WORCESTER      MOCLDY    67  58  72 W6        29.92R
6HR MIN TEMP:  67; 6HR MAX TEMP:  72; 6HR PCP: TRACE;

FITCHBURG      CLOUDY    70  57  63 SW3       29.90R
ORANGE         MOCLDY    68  59  73 SW6       29.89S
SPRINGFIELD    CLEAR     68  60  75 NW5       29.89R
WESTFIELD      CLOUDY    69  60  73 NW3       29.90R
NORTH ADAMS    CLOUDY    66  58  75 CALM      29.91R
PITTSFIELD     PTCLDY    63  58  83 W3        29.91S
$$

RIZALL-300100-
RHODE ISLAND

CITY           SKY/WX    TMP DP  RH WIND       PRES   REMARKS
PROVIDENCE     PTCLDY    72  59  63 SW5       29.91R
6HR MIN TEMP:  72; 6HR MAX TEMP:  75;

NEWPORT        CLEAR     67  60  78 S8        29.91R
BLOCK ISLAND   CLEAR     66  59  77 SW13      29.93S
SMITHFIELD     CLEAR     66  57  72 CALM      29.91R
WESTERLY       CLEAR     70  60  70 SW8       29.92S
$$

CTZALL-300100-
CONNECTICUT

CITY           SKY/WX    TMP DP  RH WIND       PRES   REMARKS
BRADLEY INTL   PTCLDY    72  58  61 W5        29.89R
6HR MIN TEMP:  72; 6HR MAX TEMP:  77;

HARTFORD       CLEAR     74  57  55 SW13      29.89R
BRIDGEPORT     CLEAR     72  61  68 SW8       29.91R
DANBURY        CLEAR     70  55  59 SW3       29.93R
GROTON         CLEAR     67  61  81 SW5       29.91R
NEW HAVEN      PTCLDY    70  60  70 SW6       29.91R
CHESTER        NOT AVBL
MERIDEN        CLEAR     73  57  57 SW3       29.90R
WILLIMANTIC    CLOUDY    72  60  66 S5        29.90S
OXFORD         PTCLDY    72  57  60 CALM      29.94R
$$

MEZ002-015-021-024-NHZ003-005-008-011-012-014-VTZ005-008-300100-
NORTHERN NEW ENGLAND

CITY           SKY/WX    TMP DP  RH WIND       PRES   REMARKS
PORTLAND ME    MOCLDY    64  59  83 CALM      29.86R
6HR MIN TEMP:  63; 6HR MAX TEMP:  69;

BANGOR ME      LGT RAIN  63  57  81 S7        29.85R
CONCORD NH     CLOUDY    70  57  63 W6        29.88R
MANCHESTER NH  MOCLDY    71  59  65 SW5       29.86R
NASHUA NH      MOCLDY    71  59  66 CALM      29.88R
PORTSMOUTH NH  PTCLDY    63  59  85 SE6       29.86R
JAFFREY NH     CLOUDY    66  57  72 SW8       29.91R
KEENE NH       PTCLDY    70  55  60 SW6       29.89R
BURLINGTON VT  LGT RAIN  64  56  75 NW6       29.88R
MT. WASHINGTON DRZL/FOG  43  43 100 W24         N/A  VSB 1/16
$$

NYZ052-076-300100-
EASTERN NEW YORK

CITY           SKY/WX    TMP DP  RH WIND       PRES   REMARKS
ALBANY         MOCLDY    68  57  68 W5        29.91R
6HR MIN TEMP:  68; 6HR MAX TEMP:  73;

NEW YORK CITY  PTCLDY    77  54  44 W8        29.90F
6HR MIN TEMP:  74; 6HR MAX TEMP:  78;

$$

ANZALL-300100-
MARINE OBSERVATIONS

STATION/POSITION TIME  TEMP    WIND        PRES    VSBY  WAVE
                       AIR SEA DIR/SP/G                  HT/PER
                 (UTC) (F)     (DEG/KT/KT) (MB)    (MI)  (FT/S)
BOSTON BUOY      2350   64 59  200/  8/ 10 1012.0R         4/ 9
BUZZARDS BAY     2300          230/ 18/ 19 1013.3R
NANTUCKET SOUND  2350   66 67  230/ 16/ 19 1013.0R         2/ 6
MASS BAY-STELLWA 2304   62 58  180/  8/ 10 1010.6R  1 5/8  3/ 8
ISLE OF SHOALS   0000   60     160/ 14/ 15 1010.9R
S OF BLOCK IS    2308      65                N/A           6/ 8
$$

......................KEY.........................
  SKY/WX - SKY CONDITION/PRESENT WEATHER
  TMP    - TEMPERATURE IN FAHRENHEIT
  DWPT   - DEWPOINT IN FAHRENHEIT
  RH     - RELATIVE HUMIDITY IN PERCENT
  WIND   - DIRECTION AND SPEED IN MPH
  PRES   - MEAN SEA LEVEL PRESSURE IN INCHES OF HG
  WCI    - WIND CHILL INDEX
  VSB    - VISIBILITY IN MILES
  HX     - HEAT INDEX
  TC     - TEMPERATURE IN CELSIUS
  VRB    - VARIABLE WIND DIRECTION
  N/A    - NOT AVAILABLE


USA.gov is the U.S. government's official web portal to all federal, state and local government web resources and services.